This demonstration page uses our WeatherBlox Daily Observations layout. Learn more.

Left ArrowRight Arrow

39.12711, -84.51439

Hourly Observations for October 18, 2020

Temp ( °F °C ) Dew Point ( °F °C ) Humidity (%) Winds ( mph kmh ) Pressure ( in mb ) Visibility ( mi km ) Precip ( " mm )
12:53 am 00:53 Clear 44 6.7 33 0.6 65 65 Calm 30.21 1023 10 16 0.00 0.00
1:53 am 01:53 Clear 43 6.1 33 0.6 68 68 Calm 30.22 1024 10 16 0.00 0.00
2:53 am 02:53 Clear 39 3.9 34 1.1 82 82 Calm 30.22 1023 10 16 0.00 0.00
3:53 am 03:53 Mostly Cloudy 42 5.6 33 0.6 71 71 SSW 6 9 30.19 1022 10 16 0.00 0.00
4:53 am 04:53 Cloudy 47 8.3 35 1.7 63 63 SSW 7 11 30.17 1022 10 16 0.00 0.00
5:53 am 05:53 Cloudy 48 8.9 35 1.7 61 61 SSW 7 11 30.19 1022 10 16 0.00 0.00
6:53 am 06:53 Cloudy 48 8.9 36 2.2 63 63 SW 5 7 30.22 1023 10 16 0.00 0.00
7:53 am 07:53 Cloudy 48 8.9 37 2.8 66 66 SSW 6 9 30.21 1023 10 16 0.00 0.00
8:53 am 08:53 Mostly Sunny 49 9.4 37 2.8 64 64 SSW 8 13 30.21 1023 10 16 0.00 0.00
9:53 am 09:53 Mostly Cloudy 51 10.6 38 3.3 61 61 SSW 9 15 30.22 1023 10 16 0.00 0.00
10:53 am 10:53 Cloudy with Light Rain 49 9.4 44 6.7 83 83 S 5 7 30.24 1024 7 11 0.03 0.76
11:53 am 11:53 Cloudy 49 9.4 44 6.7 83 83 SSW 6 9 30.24 1024 7 11 0.00 0.00
12:53 pm 12:53 Cloudy 51 10.6 45 7.2 80 80 SW 3 6 30.22 1024 10 16 0.00 0.00
1:53 pm 13:53 Cloudy 53 11.7 47 8.3 80 80 S 8 13 30.19 1023 8 13 0.00 0.00
2:53 pm 14:53 Cloudy 57 13.9 49 9.4 74 74 S 13 20 30.17 1022 8 13 0.00 0.00
3:53 pm 15:53 Cloudy 59 15 49 9.4 69 69 S 10 17 30.16 1021 10 16 0.00 0.00
4:53 pm 16:53 Cloudy 59 15 49 9.4 69 69 SSW 13 20 30.16 1021 10 16 0.00 0.00
5:53 pm 17:53 Cloudy 59 15 49 9.4 69 69 S 8 13 30.19 1022 10 16 0.00 0.00
6:53 pm 18:53 Mostly Cloudy 57 13.9 49 9.4 74 74 S 9 15 30.17 1022 10 16 0.00 0.00
7:53 pm 19:53 Cloudy 57 13.9 49 9.4 74 74 SSW 6 9 30.19 1022 10 16 0.00 0.00
8:53 pm 20:53 Cloudy 57 13.9 50 10 78 78 S 7 11 30.19 1023 10 16 0.00 0.00
9:53 pm 21:53 Cloudy 58 14.4 51 10.6 78 78 SSW 7 11 30.20 1023 10 16 0.00 0.00
10:53 pm 22:53 Cloudy 57 13.9 51 10.6 81 81 S 7 11 30.21 1023 10 16 0.00 0.00
11:53 pm 23:53 Cloudy 56 13.3 52 11.1 87 87 S 3 6 30.22 1023 10 16 0.00 0.00

Powered by AerisWeather